Regional Weather Roundup
Issued by NWS

Home | Current Version | Previous Version | Text Only | Print | Product List | Glossary On
Versions: 1 2 3 4 5 6 7 8 9 10 11 12 13 14 15 16 17 18 19 20 21 22 23 24 25 26 27 28 29 30 31 32 33 34 35 36 37 38 39 40 41 42 43 44 45 46 47 48 49 50
000
ASUS43 KMKX 071000
RWRWI

WISCONSIN REGIONAL WEATHER ROUNDUP
NATIONAL WEATHER SERVICE MILWAUKEE/SULLIVAN WI
500 AM CDT TUE JUL 07 2015

NOTE: "FAIR" INDICATES FEW OR NO CLOUDS BELOW 12,000 FEET WITH NO
SIGNIFICANT WEATHER AND/OR OBSTRUCTIONS TO VISIBILITY.

WIZ001-002-006>008-014>016-023>028-071100-
NORTHWEST WISCONSIN

CITY           SKY/WX    TMP DP  RH WIND       PRES   REMARKS
SUPERIOR ARPT  CLOUDY    55  45  69 N5        30.09R
ASHLAND        CLOUDY    52  48  86 NW5       30.06R
HAYWARD        CLOUDY    53  44  71 N6        30.07S
SIREN          CLOUDY    53  46  77 N5        30.09R
CUMBERLAND     CLOUDY    50  46  87 N7        30.07S
RICE LAKE      CLEAR     50  45  84 NW3       30.08R
CHETEK         CLEAR     51  47  86 CALM      30.06S
LADYSMITH      CLEAR     51  46  85 N10       30.06S
EAU CLAIRE     NOT AVBL
MENOMONIE      CLEAR     53  48  83 NW5       30.06R
NEW RICHMOND   CLEAR     51  49  94 N5        30.09R
OSCEOLA        CLEAR     51  51 100 NW3       30.12R
$$

WIZ003>005-009-010-017-018-071100-
NORTH CENTRAL WISCONSIN

CITY           SKY/WX    TMP DP  RH WIND       PRES   REMARKS
MANITOWISH WTR CLOUDY    48  47  97 N5        30.03R
ARBOR VITAE    PTCLDY    49  47  91 N5        30.02R
WOODRUFF       PTCLDY    49  47  91 N5        30.02R
RHINELANDER    MOCLDY    51  43  74 N8        30.02R
EAGLE RIVER    CLOUDY    50  46  87 N8        30.01R
LAND O LAKES   CLOUDY    50  45  80 N10       30.02R
PHILLIPS       CLEAR     47  47  99 NW3       30.03R
TOMAHAWK       CLEAR     48  45  87 NW5       30.02R
MEDFORD        CLEAR     49  47  91 N7        30.02R
MERRILL        CLEAR     50  49  97 N3        30.00S
$$

WIZ029-030-035-036-043>047-071100-
CENTRAL WISCONSIN

CITY           SKY/WX    TMP DP  RH WIND       PRES   REMARKS
WAUSAU         CLEAR     54  48  80 N9        29.99R
MOSINEE        CLEAR     52  52 100 N9        30.00R
MARSHFIELD     CLEAR     53  47  79 N7        30.01R
STEVENS POINT  CLOUDY    54  52  94 NW7       29.99R FOG
WAUPACA        CLEAR     58  56  93 N5        29.96R FOG
WAUTOMA        NOT AVBL
WISC RAPIDS    PTCLDY    55  50  83 N9        30.00R
CAMP DOUGLAS   NOT AVBL
$$

WIZ011>013-019>022-031-037>040-048>050-071100-
NORTHEAST WISCONSIN

CITY           SKY/WX    TMP DP  RH WIND       PRES   REMARKS
ANTIGO         CLOUDY    53  50  90 N13       29.98R
SHAWANO        CLOUDY    60  54  80 NE9       29.96R
OCONTO         CLOUDY    57  50  78 N6        29.95R
STURGEON BAY   CLOUDY    57  46  67 N15G21    29.96R
GREEN BAY      CLOUDY    60  50  69 N16       29.95R
MANITOWOC      CLOUDY    57  55  94 MISG      29.93R
APPLETON       CLOUDY    59  52  77 N12       29.95R HAZE
CLINTONVILLE   CLOUDY    59  52  77 N6        29.96R
OSHKOSH        CLOUDY    61  56  83 N10       29.94R HAZE
$$

WIZ032>034-041-042-053>061-071100-
SOUTHWEST WISCONSIN

CITY           SKY/WX    TMP DP  RH WIND       PRES   REMARKS
LA CROSSE      CLOUDY    59  53  80 N12       30.02R
SPARTA         CLOUDY    57  55  93 N8        30.01R FOG
VIROQUA        CLOUDY    57  57 100 N8        30.00S
BOSCOBEL       CLEAR     59  54  83 N7        29.98R HAZE
PRAIRIE DU CHI CLEAR     59  55  88 NW3       29.98R FOG
PLATTEVILLE    CLEAR     58  56  96 N9        29.95S
$$

WIZ056-057-062-063-064-067-068-071100-
SOUTH CENTRAL WISCONSIN

CITY           SKY/WX    TMP DP  RH WIND       PRES   REMARKS
REEDSBURG      PTCLDY    56  55  95 N9        29.97R FOG
BARABOO/DELLS  CLOUDY    57  55  91 N8        29.96S FOG
LONE ROCK      CLOUDY    59  55  87 N9        29.97R FOG
MINERAL POINT  CLEAR     59  55  88 N9        29.95R FOG
MADISON        CLOUDY    60  57  89 N6        29.93R FOG
MIDDLETON      PTCLDY    60  59  95 N5        29.94S
WATERTOWN      CLOUDY    59  59 100 N7        29.91S FOG
MONROE         PTCLDY    59  55  88 N13G18    29.92S FOG
JANESVILLE     CLOUDY    61  59  94 N10G16    29.91R FOG
$$

WIZ051-052-058>065-066-070>072-071100-
SOUTHEAST WISCONSIN

CITY           SKY/WX    TMP DP  RH WIND       PRES   REMARKS
MILWAUKEE      LGT RAIN  58  56  93 N12       29.91R FOG
WAUKESHA       LGT RAIN  57  55  94 N7        29.93R
MILWAUKEE/TIMM CLOUDY    59  55  88 N9        29.92R FOG
RACINE         LGT RAIN  59  56  89 N18G29    29.91R FOG
BURLINGTON     CLOUDY    58  57  97 NE7       29.91R FOG
KENOSHA        LGT RAIN  59  57  93 N13       29.91R FOG
FOND DU LAC    CLOUDY    61  57  87 N8        29.93R FOG
SHEBOYGAN      CLOUDY    58  55  90 N7        29.92R FOG
WEST BEND      CLOUDY    59  55  88 N6        29.92R FOG
JUNEAU         CLOUDY    59  56  91 N9        29.94R FOG
$$

LSZ147-162-071100-
LAKE SUPERIOR

STATION/POSITION TIME  TEMP    WIND        PRES    WAVE
                       AIR SEA DIR/SP/G            HT/PER
                 (UTC) (F)     (DEG/KT/KT) (MB)    (FT/S)
W MID LAKE BUOY  0850   45 39  310/  8/ 10 1016.8R   1/ 3
DEVILS ISLAND    0900   56     320/ 13/ 14 1017.8R
PORT WING        0900   57     330/ 14/ 16 1018.3R
SAXON HARBOR     0900   58     350/ 13/ 17 1016.9
$$

LMZ867-665-643>646-071100-
LAKE MICHIGAN

STATION/POSITION TIME  TEMP    WIND        PRES    WAVE
                       AIR SEA DIR/SP/G            HT/PER
                 (UTC) (F)     (DEG/KT/KT) (MB)    (FT/S)
CHAMBERS ISLAND  0900   58     330/ 19/ 23 1013.2R
N MID LAKE BUOY  0850   54 54  320/ 19/ 23 1011.8R   3/ 4
NORTHPORT PIER   0900   58     340/ 20/ 24 1012.9R
SISTER BAY       0914   57     360/ 18/ 26   N/A
ALGOMA LAKESHORE 0911           20/  9/ 13   N/A
KEWAUNEE LAKESHO 0900   58     360/  5/  9 1012.6R
SHEBOYGAN LAKESH 0900   56      10/ 22/ 24 1012.9R
PORT WASHINGTON  0900   61     350/  5/ 11 1013.2
ATWATER BUOY     0900   58 58   10/ 14/ 19 1013.6R
MILWAUKEE LAKESH 0900   59      20/ 12/ 15   N/A
KENOSHA   LAKESH 0900   59      10/ 21/ 26 1011.5R
$$

TC  - TEMPERATURE IN CELSIUS
VSB - VISIBILITY IN STATUTE MILES
WCI - WIND CHILL INDEX
HX  - HEAT INDEX




USA.gov is the U.S. government's official web portal to all federal, state and local government web resources and services.